Weather reports worldwide

Advertisment
Leeuwarden, Netherlands (6270): temperature & dewpoint: 22.01.2020 07:00:00 - 28.01.2020 07:00:00 (CET)Leeuwarden, Netherlands (6270): temperature 5cm: 22.01.2020 07:00:00 - 28.01.2020 07:00:00 (CET)Leeuwarden, Netherlands (6270): wind speed & gusts: 22.01.2020 07:00:00 - 28.01.2020 07:00:00 (CET)Leeuwarden, Netherlands (6270): wind direction: 22.01.2020 07:00:00 - 28.01.2020 07:00:00 (CET)Leeuwarden, Netherlands (6270): reduced air pressure: 22.01.2020 07:00:00 - 28.01.2020 07:00:00 (CET)Leeuwarden, Netherlands (6270): visibility: 22.01.2020 07:00:00 - 28.01.2020 07:00:00 (CET)Leeuwarden, Netherlands (6270): precipitation: 22.01.2020 07:00:00 - 28.01.2020 07:00:00 (CET)
Date & Time tt [°C] td [°C] tt 5cm [°C] ff [km/h] ff [kn] fx [km/h] fx [kn] dd ppp [hPa] vv [km] rr [mm]
28.01.2020 07:00:00 5,7 4,4 5,3 22 12 36 19 SW 986,8 10 0,0
28.01.2020 06:00:00 6,0 4,7 5,5 22 12 32 18 SW 987,3 10 0,0
28.01.2020 05:00:00 6,0 5,0 5,7 18 10 29 16 SW 987,8 10 0,0
28.01.2020 04:00:00 6,1 4,3 5,8 26 14 47 25 WSW 988,3 10 0,0
28.01.2020 03:00:00 6,2 5,0 5,7 29 16 50 27 SW 988,7 10 0,0
28.01.2020 02:00:00 5,3 4,2 5,1 26 14 47 25 SW 988,9 4,3 0,1
28.01.2020 01:00:00 6,6 5,5 6,2 24 13 40 21 S 989,5 10 1,7
28.01.2020 00:00:00 7,0 6,3 6,8 21 11 36 19 SSE 991,0 7 0,6
27.01.2020 23:00:00 7,1 5,9 6,7 18 10 32 18 SSE 992,9 10 0,0
27.01.2020 22:00:00 7,0 6,2 6,4 16 9 29 16 SSE 994,7 7 0,0
27.01.2020 21:00:00 7,1 6,1 6,6 15 8 25 14 SSE 996,3 7 0,0
27.01.2020 20:00:00 7,0 6,1 6,5 13 7 22 12 S 997,5 8 0,0
27.01.2020 19:00:00 7,3 6,3 7,0 21 11 29 16 SSW 998,9 10 0,0
27.01.2020 18:00:00 7,5 6,2 7,1 16 9 29 16 S 999,7 10 0,0
27.01.2020 17:00:00 7,9 6,7 7,5 18 10 36 19 SSW 1000,4 10 0,0
27.01.2020 16:00:00 8,1 6,8 7,9 18 10 36 19 SSW 1001,0 10 0,1
27.01.2020 15:00:00 8,4 7,0 8,2 22 12 36 19 SSW 1001,6 10 0,0
27.01.2020 14:00:00 8,6 7,5 8,7 22 12 40 21 SSW 1002,1 10 0,0
27.01.2020 13:00:00 8,6 7,5 8,6 22 12 32 18 SSW 1002,9 - 0,0
27.01.2020 12:00:00 8,0 8,0 - 21 11 29 16 SSW 1003,6 - 0,0
27.01.2020 11:00:00 8,0 7,6 7,8 16 9 32 18 SSW 1004,0 - 1,0
27.01.2020 10:00:00 7,7 7,4 7,6 21 11 32 18 SSW 1004,2 - 0,5
27.01.2020 09:00:00 7,7 7,2 7,3 21 11 29 16 SSW 1004,4 - 0,0
27.01.2020 08:00:00 7,4 7,0 7,2 16 9 32 18 SSW 1004,5 - 0,0
27.01.2020 07:00:00 7,6 7,1 7,3 21 11 36 19 SSW 1004,6 - 0,0
27.01.2020 06:00:00 7,5 7,0 7,2 24 13 40 21 SSW 1004,8 - 0,0
27.01.2020 05:00:00 7,3 6,9 7,1 28 15 47 25 SSW 1005,2 - 0,3
27.01.2020 04:00:00 7,2 6,6 6,9 31 17 47 25 SSW 1005,3 - 0,5
27.01.2020 03:00:00 7,1 6,3 6,8 31 17 47 25 S 1005,9 - 0,2
27.01.2020 02:00:00 6,6 5,9 6,4 21 11 36 19 S 1006,6 - 0,8
27.01.2020 01:00:00 6,7 5,7 6,5 26 14 40 21 S 1007,4 - 0,0
27.01.2020 00:00:00 7,0 5,5 6,5 22 12 36 19 S 1008,1 - 0,0
26.01.2020 23:00:00 6,3 5,4 5,9 15 8 29 16 S 1008,8 - 0,0
26.01.2020 22:00:00 5,9 5,1 5,3 15 8 22 12 S 1009,5 - 0,0
26.01.2020 21:00:00 6,2 5,3 5,5 16 9 25 14 S 1010,2 - 0,0
26.01.2020 20:00:00 6,6 5,4 6,3 16 9 25 14 S 1010,5 - 0,0
26.01.2020 19:00:00 6,4 5,3 5,9 16 9 29 16 S 1010,7 - 0,0
26.01.2020 18:00:00 6,4 5,2 5,9 16 9 25 14 S 1011,2 - 0,0
26.01.2020 17:00:00 6,0 4,8 5,1 15 8 25 14 S 1011,4 - 0,0
26.01.2020 16:00:00 5,8 4,8 5,6 18 10 29 16 S 1011,8 - 0,0
26.01.2020 15:00:00 5,4 4,6 5,6 16 9 29 16 SSW 1012,4 - 0,0
26.01.2020 14:00:00 5,4 4,2 5,6 21 11 32 18 SSW 1012,9 - 0,0
26.01.2020 13:00:00 5,3 4,2 5,5 18 10 32 18 S 1013,4 - 0,0
26.01.2020 12:00:00 4,6 3,6 4,9 18 10 32 18 S 1014,0 7 0,0
26.01.2020 11:00:00 3,3 3,0 3,3 16 9 32 18 S 1014,6 6 0,0
26.01.2020 10:00:00 2,5 2,4 2,5 21 11 29 16 S 1014,7 2,9 0,0
26.01.2020 09:00:00 1,7 1,6 1,8 21 11 32 18 S 1014,8 0,8 0,0
26.01.2020 08:00:00 1,3 1,1 1,4 22 12 36 19 S 1015,0 0,8 0,0
26.01.2020 07:00:00 1,1 1,0 1,2 16 9 32 18 SSE 1015,2 0,7 0,0
26.01.2020 06:00:00 1,1 1,0 1,3 18 10 29 16 SSE 1015,3 0,7 0,0
26.01.2020 05:00:00 1,4 1,2 1,6 18 10 36 19 S 1015,9 1,5 0,0
26.01.2020 04:00:00 1,9 1,2 2,0 24 13 36 19 S 1016,3 3,3 0,0
26.01.2020 03:00:00 2,4 1,7 2,1 15 8 29 16 S 1016,9 3,3 0,0
26.01.2020 02:00:00 2,8 2,0 2,8 18 10 29 16 S 1017,3 4,1 0,0
26.01.2020 01:00:00 2,8 2,0 2,8 16 9 25 14 S 1017,9 3,8 0,0
26.01.2020 00:00:00 2,8 2,0 2,8 15 8 22 12 S 1018,4 3,5 0,0
25.01.2020 23:00:00 2,7 1,8 2,7 16 9 25 14 S 1018,7 4,6 0,0
25.01.2020 22:00:00 2,7 1,8 2,6 16 9 29 16 S 1019,1 5 0,0
25.01.2020 21:00:00 2,8 1,8 2,7 16 9 25 14 S 1019,3 4,8 0,0
25.01.2020 20:00:00 3,0 2,0 2,9 16 9 29 16 S 1019,3 6 0,0
25.01.2020 19:00:00 3,0 1,9 2,9 16 9 25 14 S 1019,4 6 0,0
25.01.2020 18:00:00 3,1 2,2 3,0 11 6 22 12 S 1019,2 5 0,0
25.01.2020 17:00:00 3,3 2,4 3,2 15 8 22 12 S 1019,2 5 0,0
25.01.2020 16:00:00 3,4 2,5 3,4 18 10 25 14 S 1019,3 5 0,0
25.01.2020 15:00:00 3,4 2,7 3,5 18 10 25 14 SSW 1019,8 4,9 0,0
25.01.2020 14:00:00 3,5 2,8 3,5 18 10 29 16 SSW 1020,4 5 0,0
25.01.2020 13:00:00 3,4 2,8 3,5 18 10 29 16 SSW 1020,6 4,3 0,0
25.01.2020 12:00:00 3,5 2,7 3,5 18 10 29 16 SSW 1021,0 3,9 0,0
25.01.2020 11:00:00 3,5 2,9 3,5 18 10 32 18 SSW 1020,8 3,6 0,0
25.01.2020 10:00:00 3,5 3,0 3,5 18 10 29 16 SSW 1020,6 2,8 0,0
25.01.2020 09:00:00 3,6 3,3 3,6 18 10 29 16 SSW 1020,5 2,4 0,0
25.01.2020 08:00:00 3,7 3,5 3,7 18 10 29 16 SSW 1020,1 2,6 0,0
25.01.2020 07:00:00 3,7 3,4 3,6 18 10 25 14 SSW 1020,0 2,7 0,0
25.01.2020 06:00:00 3,7 3,4 3,7 16 9 29 16 SSW 1019,6 2,7 0,0
25.01.2020 05:00:00 3,8 3,5 3,8 16 9 29 16 SSW 1019,9 2,7 0,0
25.01.2020 04:00:00 3,8 3,7 3,8 15 8 25 14 SSW 1020,2 2,7 0,0
25.01.2020 03:00:00 4,0 3,8 4,0 18 10 29 16 SSW 1020,6 2,7 0,0
25.01.2020 02:00:00 4,1 3,9 4,1 16 9 25 14 SW 1020,6 3,1 0,0
25.01.2020 01:00:00 4,0 3,8 4,0 21 11 29 16 SSW 1020,8 2,9 0,0
25.01.2020 00:00:00 4,1 3,9 4,1 16 9 29 16 SSW 1020,9 2,6 0,0
24.01.2020 23:00:00 4,1 3,9 4,1 21 11 25 14 SSW 1021,1 2,6 0,1
24.01.2020 22:00:00 4,2 3,9 4,1 16 9 29 16 SW 1021,3 2,4 0,1
24.01.2020 21:00:00 4,1 3,9 4,1 21 11 25 14 SW 1021,3 2,3 0,1
24.01.2020 20:00:00 4,1 3,8 4,1 16 9 25 14 SSW 1021,3 2,0 0,1
24.01.2020 19:00:00 4,0 3,8 3,9 16 9 25 14 SSW 1021,2 2,2 0,0
24.01.2020 18:00:00 3,9 3,6 3,9 15 8 25 14 SSW 1021,3 2,0 0,0
24.01.2020 17:00:00 3,9 3,6 4,0 15 8 25 14 SSW 1021,1 1,7 0,1
24.01.2020 16:00:00 4,1 3,3 4,1 15 8 25 14 SSW 1021,3 2,4 0,0
24.01.2020 15:00:00 4,1 3,0 4,1 18 10 29 16 SSW 1020,8 3,4 0,0
24.01.2020 14:00:00 3,9 3,1 3,9 18 10 29 16 SSW 1021,5 3,0 0,0
24.01.2020 13:00:00 3,7 3,0 3,8 18 10 29 16 SSW 1022,1 2,4 0,0
24.01.2020 12:00:00 3,7 2,9 3,6 18 10 29 16 SW 1022,9 3,5 0,0
24.01.2020 11:00:00 3,3 2,4 3,6 18 10 29 16 S 1022,6 2,4 0,0
24.01.2020 10:00:00 3,2 2,8 3,3 13 7 22 12 S 1022,7 2,4 0,0
24.01.2020 09:00:00 3,0 2,7 3,1 11 6 18 10 SSW 1022,8 1,6 0,0
24.01.2020 08:00:00 3,0 2,5 2,9 13 7 25 14 SW 1023,0 2,4 0,0
24.01.2020 07:00:00 2,9 2,5 2,9 16 9 25 14 SW 1022,8 2,5 0,0
24.01.2020 06:00:00 3,2 2,8 3,2 15 8 25 14 SSW 1022,7 2,3 0,0
24.01.2020 05:00:00 3,5 3,3 3,6 11 6 22 12 SSW 1023,0 1,7 0,1
24.01.2020 04:00:00 3,5 3,4 3,6 13 7 18 10 SW 1023,8 1,8 0,0
24.01.2020 03:00:00 3,3 2,9 3,4 13 7 18 10 S 1024,4 2,3 0,0
24.01.2020 02:00:00 3,3 3,0 3,4 13 7 18 10 S 1024,7 2,3 0,0
24.01.2020 01:00:00 3,4 3,0 3,4 15 8 22 12 S 1025,6 2,2 0,0
24.01.2020 00:00:00 3,5 3,2 3,6 11 6 18 10 S 1026,0 2,2 0,0
23.01.2020 23:00:00 3,7 3,4 3,8 9 5 14 8 S 1026,8 3,1 0,0
23.01.2020 22:00:00 3,8 3,4 3,8 13 7 14 8 S 1027,2 3,5 0,0
23.01.2020 21:00:00 4,1 3,6 4,2 9 5 18 10 S 1027,6 6 0,0
23.01.2020 20:00:00 4,8 3,9 4,7 11 6 18 10 S 1027,7 10 0,0
23.01.2020 19:00:00 5,0 4,1 4,9 9 5 14 8 S 1028,1 10 0,0
23.01.2020 18:00:00 5,3 4,3 5,2 8 4 11 6 S 1028,6 10 0,0
23.01.2020 17:00:00 5,5 4,4 5,4 5 3 14 8 S 1029,1 10 0,0
23.01.2020 16:00:00 5,6 4,5 5,6 8 4 14 8 SSW 1029,4 10 0,0
23.01.2020 15:00:00 5,6 4,6 5,7 9 5 18 10 S 1030,0 10 0,0
23.01.2020 14:00:00 5,8 5,0 6,0 8 4 14 8 S 1031,0 10 0,0
23.01.2020 13:00:00 5,9 5,0 6,1 8 4 14 8 SSW 1031,8 10 0,0
23.01.2020 12:00:00 6,1 5,1 6,1 5 3 14 8 SSW 1032,6 6 0,0
23.01.2020 11:00:00 6,1 5,8 6,1 5 3 11 6 S 1033,1 6 0,0
23.01.2020 10:00:00 5,7 5,6 5,7 5 3 7 4 SSE 1033,4 7 0,0
23.01.2020 09:00:00 5,4 5,3 5,4 5 3 7 4 SSW 1033,7 2,6 0,0
23.01.2020 08:00:00 5,4 5,0 5,1 4 2 7 4 W 1033,6 3,7 0,0
23.01.2020 07:00:00 5,3 5,2 5,1 4 2 7 4 S 1033,8 6 0,0
23.01.2020 06:00:00 5,4 5,3 5,3 4 2 11 6 - 1034,1 3,3 0,0
23.01.2020 05:00:00 5,4 5,3 5,2 4 2 7 4 - 1034,5 1,8 0,0
23.01.2020 04:00:00 5,3 5,0 4,5 4 2 7 4 - 1035,1 8 0,0
23.01.2020 03:00:00 4,9 4,8 4,5 2 1 11 6 - 1035,4 10 0,0
23.01.2020 02:00:00 4,7 4,5 4,2 5 3 7 4 SW 1035,8 10 0,0
23.01.2020 01:00:00 4,1 3,9 3,4 5 3 7 4 SSW 1036,1 6 0,0
23.01.2020 00:00:00 3,0 2,9 2,2 2 1 4 2 N 1036,2 2,3 0,0
22.01.2020 23:00:00 3,3 3,2 0,6 4 2 4 2 SW 1036,3 0,5 0,0
22.01.2020 22:00:00 3,6 3,4 1,0 4 2 7 4 SSW 1036,1 0,9 0,0
22.01.2020 21:00:00 4,5 4,3 2,4 5 3 7 4 WSW 1036,2 0,6 0,0
22.01.2020 20:00:00 6,0 5,9 5,6 4 2 4 2 SW 1036,3 10 0,0
22.01.2020 19:00:00 6,2 6,1 6,2 5 3 14 8 NE 1036,0 7 0,3
22.01.2020 18:00:00 6,7 6,5 6,6 8 4 11 6 W 1035,7 2,5 0,3
22.01.2020 17:00:00 6,7 6,5 6,7 5 3 14 8 WNW 1035,5 2,4 0,1
22.01.2020 16:00:00 7,0 6,4 7,1 13 7 14 8 NNW 1035,5 10 0,0
22.01.2020 15:00:00 7,3 6,9 7,3 13 7 18 10 NW 1035,5 5 0,0
22.01.2020 14:00:00 7,9 6,5 8,0 11 6 22 12 NNW 1035,7 10 0,0
22.01.2020 13:00:00 7,8 6,7 7,8 13 7 22 12 NW 1035,6 10 0,0
22.01.2020 12:00:00 8,0 6,7 8,0 15 8 18 10 NNW 1036,0 10 0,0
22.01.2020 11:00:00 8,1 7,2 7,9 9 5 18 10 NNW 1036,1 10 0,0
22.01.2020 10:00:00 7,5 7,2 7,2 9 5 14 8 NNW 1035,7 10 0,0
22.01.2020 09:00:00 7,1 6,9 6,9 15 8 22 12 NNW 1035,6 3,4 0,0
22.01.2020 08:00:00 6,9 6,7 6,7 15 8 22 12 NW 1035,2 2,6 0,1
22.01.2020 07:00:00 6,7 6,5 6,5 13 7 22 12 WNW 1035,1 2,2 0,1

tt = temperature
td = dewpoint
tt 5cm = temperature 5cm
ff = wind speed
fx = gusts
dd = wind direction
ppp = reduced air pressure
vv = visibility
rr = precipitation

Next stations